Date String (YYYY-MM-DD hh:mm:ss) UTC,Instrument flags,Ambient pressure (hPa),Sample flow (lpm),Bypass flow (lpm),Sample temperature (°C),Ambient temperature (°C),ASC tube jacket temperature (°C),LED temperature (°C),Box temperature (°C),Sample RH (%),Span deviation,Mass concentration (μg/m³),Mass concentration (μg/m³),Mass concentration (μg/m³)
DateTimeUTC,F1_M11,P_M11,Q1_M11,Q2_M11,T1_M11,T2_M11,T3_M11,T4_M11,T5_M11,U1_M11,ZSPAN_M11,X0_M11,X2_M11,X1_M11
2023-04-12 01:00:00,,0828.1,5.01,0.00,30.0,28.7,00.0,38.3,31.7,06.9,0000.0,0014.96,0003.45,0001.89
2023-04-12 01:01:00,,0828.0,5.00,0.00,30.0,28.8,00.0,38.3,31.7,06.8,0000.0,0014.93,0003.44,0001.89
2023-04-12 01:02:00,,0828.1,5.00,0.00,30.1,28.9,00.0,38.3,31.7,06.8,0000.0,0014.30,0003.43,0001.90
2023-04-12 01:03:00,,0828.1,4.98,0.00,30.1,28.0,00.0,38.3,31.6,06.8,0000.0,0014.12,0003.43,0001.90
2023-04-12 01:04:00,,0828.1,5.01,0.00,30.0,26.0,00.0,38.2,31.2,06.8,0000.0,0014.42,0003.43,0001.91
2023-04-12 01:05:00,,0828.0,5.00,0.00,29.9,25.3,00.0,38.1,31.1,06.8,0000.0,0014.52,0003.39,0001.91
2023-04-12 01:06:00,,0828.0,5.02,0.00,29.8,25.5,00.0,38.1,30.9,06.9,0000.0,0014.52,0003.39,0001.91
2023-04-12 01:07:00,,0828.0,5.01,0.00,29.7,25.8,00.0,38.1,30.9,07.0,0000.0,0013.80,0003.37,0001.91
2023-04-12 01:08:00,,0828.1,5.00,0.00,29.7,26.2,00.0,38.1,30.9,07.0,0000.0,0012.67,0003.31,0001.90
2023-04-12 01:09:00,,0828.1,5.01,0.00,29.6,26.6,00.0,38.1,31.0,07.0,0000.0,0010.42,0003.27,0001.89
2023-04-12 01:10:00,,0828.1,4.99,0.00,29.6,26.9,00.0,38.1,31.1,06.9,0000.0,0009.44,0003.27,0001.88
2023-04-12 01:11:00,,0828.1,5.00,0.00,29.6,27.3,00.0,38.1,31.1,06.8,0000.0,0010.50,0003.33,0001.88
2023-04-12 01:12:00,,0828.1,5.00,0.00,29.6,27.5,00.0,38.1,31.2,06.8,0000.0,0011.11,0003.34,0001.88
2023-04-12 01:13:00,,0828.1,5.00,0.00,29.7,27.7,00.0,38.1,31.3,06.8,0000.0,0011.52,0003.32,0001.86
2023-04-12 01:14:00,,0828.1,5.00,0.00,29.7,27.9,00.0,38.1,31.3,06.7,0000.0,0011.34,0003.31,0001.86
2023-04-12 01:15:00,,0828.1,5.00,0.00,29.7,28.1,00.0,38.1,31.3,06.7,0000.0,0011.06,0003.34,0001.86
2023-04-12 01:16:00,,0828.1,5.00,0.00,29.8,28.2,00.0,38.1,31.4,06.7,0000.0,0011.35,0003.35,0001.85
2023-04-12 01:17:00,,0828.1,4.99,0.00,29.8,28.3,00.0,38.1,31.4,06.9,0000.0,0011.77,0003.33,0001.85
2023-04-12 01:18:00,,0828.1,5.00,0.00,29.8,28.4,00.0,38.1,31.4,06.8,0000.0,0011.90,0003.30,0001.83
2023-04-12 01:19:00,,0828.1,5.00,0.00,29.8,28.5,00.0,38.1,31.4,06.7,0000.0,0011.83,0003.30,0001.82
2023-04-12 01:20:00,,0828.0,5.00,0.00,29.9,28.6,00.0,38.1,31.5,06.7,0000.0,0011.71,0003.33,0001.82
2023-04-12 01:21:00,,0828.1,5.00,0.00,29.9,28.6,00.0,38.2,31.5,06.7,0000.0,0011.26,0003.28,0001.82
2023-04-12 01:22:00,,0828.1,5.00,0.00,29.9,28.7,00.0,38.2,31.6,06.7,0000.0,0009.73,0003.22,0001.82
2023-04-12 01:23:00,,0828.1,5.00,0.00,30.0,28.7,00.0,38.2,31.6,06.8,0000.0,0009.03,0003.20,0001.82
2023-04-12 01:24:00,,0828.1,5.00,0.00,30.0,28.8,00.0,38.2,31.6,06.8,0000.0,0008.36,0003.19,0001.83
2023-04-12 01:25:00,,0828.1,5.00,0.00,30.0,28.8,00.0,38.3,31.7,06.9,0000.0,0008.52,0003.17,0001.81
2023-04-12 01:26:00,,0828.1,5.00,0.00,30.1,28.8,00.0,38.3,31.7,06.9,0000.0,0009.00,0003.14,0001.80
2023-04-12 01:27:00,,0828.1,5.01,0.00,30.1,28.9,00.0,38.3,31.7,06.9,0000.0,0008.84,0003.15,0001.81
2023-04-12 01:28:00,,0828.1,4.99,0.00,30.1,28.0,00.0,38.3,31.6,06.8,0000.0,0008.35,0003.21,0001.80
2023-04-12 01:29:00,,0828.1,5.00,0.00,30.0,25.9,00.0,38.2,31.2,06.8,0000.0,0008.34,0003.23,0001.79
2023-04-12 01:30:00,,0828.1,5.01,0.00,29.9,25.0,00.0,38.1,31.0,06.9,0000.0,0008.40,0003.21,0001.78
2023-04-12 01:31:00,,0828.1,5.01,0.00,29.8,25.2,00.0,38.0,30.9,07.0,0000.0,0008.40,0003.17,0001.78
2023-04-12 01:32:00,,0828.1,5.00,0.00,29.7,25.5,00.0,38.0,30.8,07.0,0000.0,0008.50,0003.16,0001.77
2023-04-12 01:33:00,,0828.1,5.00,0.00,29.6,25.9,00.0,38.0,30.8,07.1,0000.0,0008.51,0003.14,0001.77
2023-04-12 01:34:00,,0828.1,5.00,0.00,29.6,26.3,00.0,38.0,30.9,07.1,0000.0,0008.77,0003.13,0001.76
2023-04-12 01:35:00,,0828.0,5.00,0.00,29.6,26.7,00.0,38.0,30.9,06.9,0000.0,0008.77,0003.10,0001.75
2023-04-12 01:36:00,,0828.1,4.99,0.00,29.6,27.0,00.0,38.0,31.0,07.0,0000.0,0008.77,0003.12,0001.76
2023-04-12 01:37:00,,0828.1,5.00,0.00,29.6,27.3,00.0,38.0,31.0,07.0,0000.0,0008.16,0003.13,0001.77
2023-04-12 01:38:00,,0828.1,5.00,0.00,29.6,27.5,00.0,38.0,31.1,06.8,0000.0,0007.88,0003.10,0001.78
2023-04-12 01:39:00,,0828.1,5.00,0.00,29.6,27.7,00.0,38.0,31.2,06.8,0000.0,0007.70,0003.05,0001.79
2023-04-12 01:40:00,,0828.1,5.01,0.00,29.6,27.9,00.0,38.0,31.2,06.8,0000.0,0007.62,0003.08,0001.79
2023-04-12 01:41:00,,0828.1,5.00,0.00,29.7,28.0,00.0,38.0,31.2,06.8,0000.0,0007.73,0003.08,0001.80
2023-04-12 01:42:00,,0828.2,5.00,0.00,29.7,28.1,00.0,38.0,31.2,06.9,0000.0,0007.93,0003.14,0001.82
2023-04-12 01:43:00,,0828.2,5.01,0.00,29.7,28.2,00.0,38.0,31.3,06.9,0000.0,0008.05,0003.19,0001.82
2023-04-12 01:44:00,,0828.2,5.00,0.00,29.7,28.3,00.0,38.1,31.4,06.7,0000.0,0007.94,0003.21,0001.83
2023-04-12 01:45:00,,0828.2,5.00,0.00,29.8,28.3,00.0,38.1,31.4,06.7,0000.0,0008.06,0003.20,0001.84
2023-04-12 01:46:00,,0828.2,5.00,0.00,29.8,28.4,00.0,38.1,31.4,06.7,0000.0,0008.27,0003.26,0001.85
2023-04-12 01:47:00,,0828.2,5.00,0.00,29.8,28.5,00.0,38.1,31.4,06.7,0000.0,0008.59,0003.28,0001.87
2023-04-12 01:48:00,,0828.2,4.99,0.00,29.8,28.5,00.0,38.1,31.5,06.8,0000.0,0008.81,0003.31,0001.87
2023-04-12 01:49:00,,0828.2,5.00,0.00,29.9,28.6,00.0,38.1,31.5,06.8,0000.0,0009.12,0003.33,0001.87
2023-04-12 01:50:00,,0828.2,5.00,0.00,29.9,28.6,00.0,38.2,31.5,06.9,0000.0,0008.97,0003.29,0001.85
2023-04-12 01:51:00,,0828.2,4.99,0.00,29.9,28.6,00.0,38.2,31.6,07.0,0000.0,0009.53,0003.26,0001.87
2023-04-12 01:52:00,,0828.2,5.00,0.00,30.0,28.7,00.0,38.2,31.6,06.8,0000.0,0009.57,0003.26,0001.87
2023-04-12 01:53:00,,0828.2,5.01,0.00,30.0,28.7,00.0,38.2,31.6,06.9,0000.0,0009.50,0003.23,0001.85
2023-04-12 01:54:00,,0828.2,5.00,0.00,30.0,28.7,00.0,38.2,31.6,07.0,0000.0,0009.87,0003.19,0001.85
2023-04-12 01:55:00,,0828.3,5.00,0.00,30.0,28.7,00.0,38.2,31.7,06.9,0000.0,0010.33,0003.21,0001.85
2023-04-12 01:56:00,,0828.3,5.00,0.00,30.1,28.8,00.0,38.3,31.7,06.7,0000.0,0010.77,0003.22,0001.85
2023-04-12 01:57:00,,0828.3,5.00,0.00,30.1,28.8,00.0,38.3,31.7,06.8,0000.0,0010.33,0003.19,0001.85
2023-04-12 01:58:00,,0828.3,5.00,0.00,30.1,28.8,00.0,38.3,31.8,06.8,0000.0,0010.50,0003.13,0001.84
2023-04-12 01:59:00,,0828.4,5.00,0.00,30.1,28.8,00.0,38.4,31.8,06.6,0000.0,0010.72,0003.10,0001.83
